• Join FlightAware (Why Join?)
  • Login
  • US Flag 
11:50AM EST


 

Airport Tracker/Info


-or-


 

Live Flight TrackerFlight Track Log ✈ N8960A ✈ 13-May-2012 ✈ KDTW - KTVC

Flight Track Log - Related Links

Times and Time Zones

All times are in EDT time to prevent confusion due to time zone crossing. See the N8960A flight status page for this flight to view local times or setup timezone preferences in your user account.

Time Position Orientation Groundspeed Altitude Reporting Facility
EDT Latitude Longitude Course Direction KTS MPH feet Rate Location/Type
06:22PM 42.2036 -83.3556 227° Southwest 157 181 1,200  Level Cleveland Center
06:22PM 42.1886 -83.3772 226° Southwest 167 192 2,100 1,891 Climbing Cleveland Center
06:23PM 42.1475 -83.4342 224° Southwest 221 254 4,100 1,714 Climbing Cleveland Center
06:24PM 42.1347 -83.4506 279° West 249 287 4,700 2,400 Climbing Cleveland Center
06:25PM 42.1450 -83.5406 326° Northwest 274 315 7,700 2,650 Climbing Cleveland Center
06:26PM 42.2100 -83.5997 344° North 280 322 10,000 1,700 Climbing Cleveland Center
06:27PM 42.2947 -83.6317 North 293 337 11,100 1,500 Climbing Cleveland Center
06:28PM 42.3931 -83.6142 19° North 328 377 13,000 1,900 Climbing Cleveland Center
06:29PM 42.4903 -83.5681 20° North 346 398 14,900 1,714 Climbing Cleveland Center
06:30PM 42.5706 -83.5294 19° North 370 426 16,400 1,750 Climbing Cleveland Center
06:31PM 42.6886 -83.4728 19° North 370 426 18,400 1,686 Climbing Cleveland Center
06:32PM 42.7897 -83.4267 18° North 375 432 19,800 727 Climbing Cleveland Center
06:33PM 42.9164 -83.3700 360° North 389 448 20,000 91 Climbing Cleveland Center
06:34PM 43.0247 -83.3692 345° North 384 442 20,000  Level Cleveland Center
06:35PM 43.0950 -83.3950 311° West 384 442 20,000  Level Cleveland Center
06:36PM 43.1831 -83.5358 311° West 358 412 20,000  Level Cleveland Center
06:37PM 43.2511 -83.6417 311° West 367 422 20,000  Level Cleveland Center
06:38PM 43.3192 -83.7506 312° West 373 429 20,000  Level Cleveland Center
06:39PM 43.3811 -83.8453 311° West 373 429 20,000  Level Cleveland Center
06:40PM 43.4508 -83.9547 314° West 373 429 20,000  Level Cleveland Center
06:42PM 43.6114 -84.1869 321° Northwest 363 418 20,000  Level Minneapolis Center
06:43PM 43.6831 -84.2675 317° Northwest 370 426 20,000  Level Minneapolis Center
06:44PM 43.7625 -84.3706 318° Northwest 379 436 20,000 -500 Level Minneapolis Center
06:45PM 43.8369 -84.4628 318° Northwest 379 436 19,000 -1,150 Descending Minneapolis Center
06:46PM 43.9111 -84.5553 315° West 374 430 17,700 -1,412 Descending Minneapolis Center
06:47PM 43.9814 -84.6517 317° Northwest 366 421 16,200 -1,450 Descending Minneapolis Center
06:48PM 44.0489 -84.7397 316° Northwest 350 403 14,800 -1,438 Descending Minneapolis Center
06:49PM 44.1189 -84.8336 319° Northwest 350 403 13,300 -1,500 Descending Minneapolis Center
06:50PM 44.1856 -84.9136 316° Northwest 342 394 11,800 -1,550 Descending Minneapolis Center
06:51PM 44.2417 -84.9897 317° Northwest 310 357 10,200 -1,550 Descending Minneapolis Center
06:52PM 44.2972 -85.0628 317° Northwest 290 334 8,700 -1,500 Descending Minneapolis Center